SUPERVIEW NEO-2 02

导读

SUPERVIEW NEO-2 02是中国四维打造的SuperView Neo商业遥感卫星系统中,SuperView Neo-2系列合成孔径雷达(SAR)卫星。该卫星于2022年7月15日在中国发射,聚焦聚束模式下50厘米分辨率SAR成像服务,可服务自然资源勘探、城市安全治理、应急灾害响应、海洋监测等领域,为各行业用户提供高质量遥感数据与多样化应用支撑,推动中国商业SAR遥感应用发展。

基本信息
目录编号:
53130
目录名称:
SUPERVIEW NEO-2 02
国际标识:
2022-082C
轨道中心:
EARTH
卫星名称:
SUPERVIEW NEO-2 02
卫星全名:
--
卫星状态:
在轨 (已飞行1513 天)
发射日期:
2022-07-15 UTC
国别 :
中国 (CN)
星等 :
--
轨道信息
数据来源 国际轨道数据 AOE轨道数据
星历时间 2026-09-05T22:20:38+0800
6小时前
查看轨道信息
2026-09-05T02:00:00+0800
1天前
查看轨道信息
半长轴 6870.42km 6870.342km
偏心率 0.0001733 0.0001722
轨道倾角 97.394° 97.395°
近地点辐角 88.759° 89.378°
升交点赤经 257.568° 256.731°
平近点角 271.385° 301.611°
近地点 491.092km 491.021km
远地点 493.474km 493.389km
周期 94.457分钟 94.455分钟
每日圈数 15.245015 15.245275
详细信息
使用方式:
暂无
2D轨道图
3D轨道图
轨道高度分析图
轨道倾角分析图
轨道综合分析图
查看轨道综合分析图
交会数据列表
事件ID 空间交会对象 最接近时刻(TCA) 交会距离 交会风险概率(CRP) 交会风险指数(CRI) 操作
CDM_260905-204500-980705-313026
2026-09-05T
20:45:56+0000
1.618 km
极远距离
5.345338E-6 低风险 0.5
CDM_260906-041904-588905-313021
2026-09-06T
04:19:00+0000
1.840 km
极远距离
2.666681E-6 低风险 0.44
CDM_260829-201005-313005-788622
2026-08-29T
20:10:14+0000
2.245 km
极远距离
2.07315E-6 低风险 0.41